#timestamp,LO_Frequency,Hit,StdDev 
1595851215.2,286047000.6,P
1595851235.0,286046998.1,N
1595851235.9,286046998.1,N
1595851255.7,286046998.3,N
1595851275.6,286046997.3,N
1595851295.4,286046996.9,N
1595851315.3,286046995.9,Y
1595851335.1,286046991.8,P
1595851355.8,286046993.3,N
1595851375.7,286046995.3,N
1595851395.5,286046991.9,Y
1595851415.4,286046997.3,P
1595851435.2,286046997.7,N
1595851455.0,286046997.6,N
1595851455.9,286046997.6,N
1595851475.8,286046996.2,Y
1595851495.6,286047001.1,P
1595851515.4,286046999.8,N
1595851535.3,286047000.4,N
1595851555.1,286046999.4,N
1595851575.9,286046997.9,N
1595851595.7,286046997.6,N
1595851615.5,286046995.5,Y
1595851635.4,286046995.0,P
1595851655.2,286046993.7,P
1595851675.0,286046994.3,N
1595851676.0,286046994.3,N
1595851695.8,286046993.4,Y
1595851715.6,286046999.3,P
1595851735.5,286046996.0,N
1595851755.3,286046988.7,P
1595851775.1,286046986.5,Y
1595851795.9,286046991.9,P
1595851815.7,286046993.7,P
1595851835.6,286046993.4,P
1595851855.4,286046993.7,Y
1595851875.2,286047001.4,P
1595851895.1,286047001.4,N
1595851896.0,286047001.4,N
1595851915.8,286047001.7,N
1595851935.6,286047001.3,N
1595851955.5,286047004.3,N
1595851975.3,286047001.9,N
1595851995.2,286046993.8,N
1595852015.9,286046987.4,Y
1595852035.7,286046986.6,P
1595852055.6,286046982.2,N
1595852075.4,286046990.8,N
1595852095.2,286046992.1,N
1595852115.1,286046995.7,N
1595852116.0,286046995.7,N
1595852135.8,286046992.1,N
1595852155.7,286046985.9,N
1595852175.5,286046978.9,Y
1595852195.3,286046986.4,P
1595852215.2,286046982.0,P
1595852235.0,286046978.3,P
1595852235.9,286046978.3,Y
1595852255.8,286046995.5,P
1595852275.6,286046998.2,N
1595852295.4,286047003.1,N
1595852315.3,286047006.3,N
1595852335.1,286047009.5,N
1595852355.8,286047012.3,N
1595852375.7,286047011.4,N
1595852395.5,286047012.1,N
1595852415.4,286047012.4,N
1595852435.2,286047011.2,N
1595852455.0,286047007.9,N
1595852455.9,286047007.9,N
1595852475.8,286047010.2,N
1595852495.6,286047009.5,N
1595852515.4,286047010.9,N
1595852535.3,286047013.7,N
1595852555.1,286047017.1,N
1595852575.9,286047020.0,N
1595852595.7,286047020.0,N
1595852615.5,286047023.3,N
1595852635.4,286047029.2,Y
1595852655.2,286047022.1,P
1595852675.0,286047018.9,N
1595852675.9,286047018.9,P
1595852695.8,286047020.8,Y
1595852715.6,286047001.0,P
1595852735.5,286047005.6,N
1595852755.3,286047006.3,N
1595852775.1,286047005.6,N
1595852795.9,286046998.1,N
1595852815.7,286046999.1,N
1595852835.6,286046997.0,N
1595852855.4,286046997.4,N
1595852875.2,286046995.9,N
1595852895.1,286046991.9,N
1595852896.0,286046991.9,N
1595852915.8,286046990.2,N
1595852935.6,286046988.8,N
1595852955.5,286046987.4,N
1595852975.3,286046988.1,N
1595852995.2,286046986.6,N
1595853045.9,286046983.4,E
1595853055.9,286046986.6,N
1595853075.7,286046988.7,P
1595853095.5,286046982.2,P
1595853115.4,286046981.4,Y
1595853135.2,286046995.0,P
1595853155.0,286046995.9,N
1595853156.0,286046995.9,N
1595853175.8,286046992.0,N
1595853195.6,286046992.8,N
1595853215.5,286046994.6,N
1595853235.3,286046994.0,N
1595853255.1,286046996.3,N
1595853275.9,286046995.8,N
1595853295.7,286046994.9,N
1595853315.6,286046998.8,N
1595853335.4,286047000.7,N
1595853355.2,286047001.1,N
1595853375.1,286046996.6,N
1595853376.0,286046996.6,N
1595853395.8,286046996.7,N
1595853415.7,286046996.6,N
1595853435.5,286046996.9,N
1595853455.3,286046996.0,N
1595853475.2,286046993.5,N
1595853495.9,286046997.5,N
1595853515.7,286046997.0,N
1595853535.6,286046999.4,N
1595853555.4,286046999.1,N
1595853575.3,286046996.6,N
1595853595.1,286046998.5,N
1595853596.0,286046998.5,N
1595853615.8,286046998.7,N
1595853635.7,286047000.1,N
1595853655.5,286047005.4,N
1595853675.4,286047013.6,Y
1595853695.2,286047015.8,P
1595853715.0,286047012.8,N
1595853715.9,286047012.8,N
1595853735.8,286047011.9,N
1595853755.6,286047000.9,N
1595853775.4,286046997.7,N
1595853795.3,286046995.6,N
1595853815.1,286046997.8,N
1595853835.9,286046997.4,N
1595853855.7,286046997.7,N
1595853875.5,286046998.9,N
1595853895.4,286046999.1,N
1595853915.2,286047000.8,N
1595853935.1,286047002.8,N
1595853936.0,286047002.8,N
1595853955.8,286047002.6,N
1595853975.6,286047001.9,N
1595853995.5,286047002.2,N
1595854015.3,286047002.0,N
1595854035.1,286047002.7,N
1595854055.9,286047001.9,N
1595854075.7,286047003.9,N
1595854095.6,286047003.8,N
1595854115.4,286047007.3,N
1595854135.2,286047008.8,N
1595854155.1,286047009.9,N
1595854156.0,286047009.9,N
1595854175.8,286047016.1,N
1595854195.6,286047018.7,Y
1595854215.5,286047015.4,P
1595854235.3,286047012.5,N
1595854255.2,286047014.6,P
1595854275.9,286047017.9,Y
1595854295.7,286047005.9,P
1595854315.6,286047003.7,N
1595854335.4,286047003.5,N
1595854355.2,286047007.5,N
1595854375.1,286047006.0,N
1595854376.0,286047006.0,N
1595854395.8,286047005.8,N
1595854415.7,286047002.7,N
1595854435.5,286046997.3,N
1595854455.3,286046999.4,N
1595854475.2,286046999.4,N
1595854495.0,286047000.6,N
1595854495.9,286047000.6,N
1595854515.8,286047002.7,N
1595854535.6,286047002.3,N
1595854555.4,286046998.1,N
1595854575.3,286047001.1,N
1595854595.1,286047003.4,N
1595854615.8,286047001.8,N
1595854635.7,286047004.6,N
1595854655.5,286047004.3,N
1595854675.4,286047006.6,N
1595854695.2,286047015.4,Y
1595854715.0,286047010.6,P
1595854715.9,286047010.6,N
1595854735.8,286047004.6,N
1595854755.6,286047003.0,N
1595854775.4,286047005.6,N
1595854795.3,286047001.5,N
